TimeCST,TemperatureF,Dew PointF,Humidity,Sea Level PressureIn,VisibilityMPH,Wind Direction,Wind SpeedMPH,Gust SpeedMPH,PrecipitationIn,Events,Conditions,WindDirDegrees,DateUTC
12:52 AM,73.0,66.9,81,29.63,10.0,SSE,29.9,39.1,N/A,,Overcast,160,2013-02-21 06:52:00
1:26 AM,73.4,66.2,78,29.62,10.0,SSE,29.9,40.3,N/A,,Scattered Clouds,160,2013-02-21 07:26:00
1:52 AM,73.0,66.9,81,29.63,10.0,South,27.6,35.7,N/A,,Mostly Cloudy,170,2013-02-21 07:52:00
2:52 AM,73.0,66.9,81,29.61,10.0,South,31.1,41.4,N/A,,Mostly Cloudy,170,2013-02-21 08:52:00
3:03 AM,73.4,66.2,78,29.60,10.0,South,29.9,42.6,N/A,,Scattered Clouds,170,2013-02-21 09:03:00
3:52 AM,73.0,66.9,81,29.59,10.0,South,26.5,38.0,N/A,,Clear,180,2013-02-21 09:52:00
4:52 AM,72.0,66.9,84,29.58,10.0,South,24.2,34.5,N/A,,Clear,170,2013-02-21 10:52:00
5:52 AM,72.0,66.0,81,29.61,10.0,South,19.6,26.5,N/A,,Clear,190,2013-02-21 11:52:00
6:52 AM,73.0,66.9,81,29.64,10.0,South,18.4,28.8,N/A,,Clear,180,2013-02-21 12:52:00
7:52 AM,73.0,66.9,81,29.66,10.0,South,24.2,32.2,N/A,,Partly Cloudy,180,2013-02-21 13:52:00
8:52 AM,75.0,68.0,79,29.68,10.0,South,25.3,32.2,N/A,,Clear,180,2013-02-21 14:52:00
9:52 AM,80.1,68.0,67,29.68,10.0,South,25.3,32.2,N/A,,Clear,180,2013-02-21 15:52:00
10:52 AM,82.0,68.0,62,29.68,10.0,South,28.8,39.1,N/A,,Clear,190,2013-02-21 16:52:00
11:52 AM,84.0,68.0,58,29.66,10.0,South,29.9,36.8,N/A,,Clear,190,2013-02-21 17:52:00
12:52 PM,87.1,69.1,55,29.64,10.0,South,24.2,33.4,N/A,,Clear,190,2013-02-21 18:52:00
1:52 PM,86.0,69.1,57,29.63,10.0,South,19.6,-,N/A,,Clear,170,2013-02-21 19:52:00
2:52 PM,84.0,69.1,61,29.62,10.0,SSE,13.8,-,N/A,,Clear,160,2013-02-21 20:52:00
3:52 PM,84.9,70.0,61,29.63,10.0,SSE,13.8,-,N/A,,Clear,150,2013-02-21 21:52:00
4:52 PM,81.0,70.0,69,29.64,9.0,SSE,13.8,-,N/A,,Clear,160,2013-02-21 22:52:00
5:52 PM,79.0,69.1,72,29.67,10.0,ESE,3.5,-,N/A,,Mostly Cloudy,120,2013-02-21 23:52:00
6:52 PM,77.0,69.1,76,29.69,10.0,SSE,5.8,-,N/A,,Mostly Cloudy,150,2013-02-22 00:52:00
6:59 PM,75.2,69.8,83,29.69,10.0,SSE,4.6,-,N/A,,Mostly Cloudy,150,2013-02-22 00:59:00
7:52 PM,73.9,69.1,85,29.72,10.0,East,3.5,-,N/A,,Mostly Cloudy,90,2013-02-22 01:52:00
7:59 PM,75.2,69.8,83,29.73,10.0,ENE,6.9,-,N/A,,Mostly Cloudy,60,2013-02-22 01:59:00
8:29 PM,75.2,69.8,83,29.74,9.0,East,5.8,-,N/A,,Mostly Cloudy,100,2013-02-22 02:29:00
8:52 PM,73.9,69.1,85,29.75,9.0,East,6.9,-,N/A,,Partly Cloudy,90,2013-02-22 02:52:00
9:00 PM,73.4,69.8,88,29.75,9.0,ESE,4.6,-,N/A,,Mostly Cloudy,120,2013-02-22 03:00:00
9:36 PM,73.4,60.8,65,29.77,10.0,NNE,13.8,-,N/A,,Mostly Cloudy,20,2013-02-22 03:36:00
9:52 PM,73.0,61.0,66,29.77,10.0,NNE,15.0,-,N/A,,Mostly Cloudy,20,2013-02-22 03:52:00
9:59 PM,73.4,60.8,65,29.77,10.0,NNE,16.1,-,N/A,,Overcast,20,2013-02-22 03:59:00
10:52 PM,72.0,59.0,64,29.77,10.0,NNE,15.0,-,N/A,,Overcast,30,2013-02-22 04:52:00
11:52 PM,71.1,61.0,70,29.78,10.0,NNE,6.9,-,0.00,,Overcast,30,2013-02-22 05:52:00